Year,Month,Day,Hour,Minute,Value (Times are PST for temperature in C)
2009,06,27,00,00,8.70
2009,06,27,00,01,8.70
2009,06,27,00,02,8.70
2009,06,27,00,03,8.80
2009,06,27,00,04,8.80
2009,06,27,00,05,8.80
2009,06,27,00,06,8.80
2009,06,27,00,07,8.80
2009,06,27,00,08,8.80
2009,06,27,00,09,8.80
2009,06,27,00,10,8.80
2009,06,27,00,11,8.80
2009,06,27,00,12,8.80
2009,06,27,00,13,8.80
2009,06,27,00,14,8.80
2009,06,27,00,15,8.80
2009,06,27,00,16,8.80
2009,06,27,00,17,8.80
2009,06,27,00,18,8.80
2009,06,27,00,19,8.80
2009,06,27,00,20,8.80
2009,06,27,00,21,8.70
2009,06,27,00,22,8.70
2009,06,27,00,23,8.70
2009,06,27,00,24,8.70
2009,06,27,00,25,8.70
2009,06,27,00,26,8.70
2009,06,27,00,27,8.70
2009,06,27,00,28,8.70
2009,06,27,00,29,8.70
2009,06,27,00,30,8.70
2009,06,27,00,31,8.70
2009,06,27,00,32,8.60
2009,06,27,00,33,8.60
2009,06,27,00,34,8.60
2009,06,27,00,35,8.60
2009,06,27,00,36,8.60
2009,06,27,00,37,8.50
2009,06,27,00,38,8.50
2009,06,27,00,39,8.50
2009,06,27,00,40,8.50
2009,06,27,00,41,8.50
2009,06,27,00,42,8.40
2009,06,27,00,43,8.40
2009,06,27,00,44,8.40
2009,06,27,00,45,8.40
2009,06,27,00,46,8.40
2009,06,27,00,47,8.40
2009,06,27,00,48,8.40
2009,06,27,00,49,8.40
2009,06,27,00,50,8.40
2009,06,27,00,51,8.40
2009,06,27,00,52,8.30
2009,06,27,00,53,8.30
2009,06,27,00,54,8.30
2009,06,27,00,55,8.30
2009,06,27,00,56,8.30
2009,06,27,00,57,8.30
2009,06,27,00,58,8.40
2009,06,27,00,59,8.40
2009,06,27,01,00,8.40
2009,06,27,01,01,8.40
2009,06,27,01,02,8.40
2009,06,27,01,03,8.40
2009,06,27,01,04,8.40
2009,06,27,01,05,8.40
2009,06,27,01,06,8.40
2009,06,27,01,07,8.40
2009,06,27,01,08,8.40
2009,06,27,01,09,8.40
2009,06,27,01,10,8.40
2009,06,27,01,11,8.40
2009,06,27,01,12,8.40
2009,06,27,01,13,8.40
2009,06,27,01,14,8.40
2009,06,27,01,15,8.40
2009,06,27,01,16,8.40
2009,06,27,01,17,8.40
2009,06,27,01,18,8.50
2009,06,27,01,19,8.50
2009,06,27,01,20,8.50
2009,06,27,01,21,8.50
2009,06,27,01,22,8.50
2009,06,27,01,23,8.40
2009,06,27,01,24,8.40
2009,06,27,01,25,8.40
2009,06,27,01,26,8.40
2009,06,27,01,27,8.40
2009,06,27,01,28,8.40
2009,06,27,01,29,8.40
2009,06,27,01,30,8.50
2009,06,27,01,31,8.50
2009,06,27,01,32,8.50
2009,06,27,01,33,8.50
2009,06,27,01,34,8.50
2009,06,27,01,35,8.50
2009,06,27,01,36,8.50
2009,06,27,01,37,8.50
2009,06,27,01,38,8.50
2009,06,27,01,39,8.50
2009,06,27,01,40,8.50
2009,06,27,01,41,8.50
2009,06,27,01,42,8.50
2009,06,27,01,43,8.50
2009,06,27,01,44,8.50
2009,06,27,01,45,8.50
2009,06,27,01,46,8.50
2009,06,27,01,47,8.50
2009,06,27,01,48,8.50
2009,06,27,01,49,8.50
2009,06,27,01,50,8.50
2009,06,27,01,51,8.50
2009,06,27,01,52,8.50
2009,06,27,01,53,8.50
2009,06,27,01,54,8.50
2009,06,27,01,55,8.50
2009,06,27,01,56,8.50
2009,06,27,01,57,8.50
2009,06,27,01,58,8.50
2009,06,27,01,59,8.50
2009,06,27,02,00,8.50
2009,06,27,02,01,8.50
2009,06,27,02,02,8.50
2009,06,27,02,03,8.50
2009,06,27,02,04,8.50
2009,06,27,02,05,8.50
2009,06,27,02,06,8.50
2009,06,27,02,07,8.50
2009,06,27,02,08,8.50
2009,06,27,02,09,8.50
2009,06,27,02,10,8.50
2009,06,27,02,11,8.40
2009,06,27,02,12,8.40
2009,06,27,02,13,8.40
2009,06,27,02,14,8.40
2009,06,27,02,15,8.40
2009,06,27,02,16,8.40
2009,06,27,02,17,8.40
2009,06,27,02,18,8.40
2009,06,27,02,19,8.40
2009,06,27,02,20,8.40
2009,06,27,02,21,8.30
2009,06,27,02,22,8.30
2009,06,27,02,23,8.30
2009,06,27,02,24,8.30
2009,06,27,02,25,8.30
2009,06,27,02,26,8.30
2009,06,27,02,27,8.30
2009,06,27,02,28,8.30
2009,06,27,02,29,8.30
2009,06,27,02,30,8.30
2009,06,27,02,31,8.30
2009,06,27,02,32,8.20
2009,06,27,02,33,8.20
2009,06,27,02,34,8.20
2009,06,27,02,35,8.20
2009,06,27,02,36,8.20
2009,06,27,02,37,8.20
2009,06,27,02,38,8.20
2009,06,27,02,39,8.20
2009,06,27,02,40,8.20
2009,06,27,02,41,8.30
2009,06,27,02,42,8.30
2009,06,27,02,43,8.30
2009,06,27,02,44,8.30
2009,06,27,02,45,8.30
2009,06,27,02,46,8.30
2009,06,27,02,47,8.30
2009,06,27,02,48,8.30
2009,06,27,02,49,8.30
2009,06,27,02,50,8.40
2009,06,27,02,51,8.40
2009,06,27,02,52,8.40
2009,06,27,02,53,8.40
2009,06,27,02,54,8.40
2009,06,27,02,55,8.30
2009,06,27,02,56,8.30
2009,06,27,02,57,8.30
2009,06,27,02,58,8.30
2009,06,27,02,59,8.30
2009,06,27,03,00,8.30
2009,06,27,03,01,8.30
2009,06,27,03,02,8.30
2009,06,27,03,03,8.30
2009,06,27,03,04,8.20
2009,06,27,03,05,8.20
2009,06,27,03,06,8.20
2009,06,27,03,07,8.20
2009,06,27,03,08,8.20
2009,06,27,03,09,8.20
2009,06,27,03,10,8.20
2009,06,27,03,11,8.20
2009,06,27,03,12,8.20
2009,06,27,03,13,8.20
2009,06,27,03,14,8.20
2009,06,27,03,15,8.20
2009,06,27,03,16,8.20
2009,06,27,03,17,8.20
2009,06,27,03,18,8.20
2009,06,27,03,19,8.20
2009,06,27,03,20,8.20
2009,06,27,03,21,8.10
2009,06,27,03,22,8.10
2009,06,27,03,23,8.10
2009,06,27,03,24,8.10
2009,06,27,03,25,8.10
2009,06,27,03,26,8.10
2009,06,27,03,27,8.10
2009,06,27,03,28,8.10
2009,06,27,03,29,8.10
2009,06,27,03,30,8.10
2009,06,27,03,31,8.10
2009,06,27,03,32,8.00
2009,06,27,03,33,8.00
2009,06,27,03,34,8.00
2009,06,27,03,35,8.00
2009,06,27,03,36,8.00
2009,06,27,03,37,8.00
2009,06,27,03,38,8.00
2009,06,27,03,39,8.00
2009,06,27,03,40,8.00
2009,06,27,03,41,7.90
2009,06,27,03,42,7.90
2009,06,27,03,43,7.90
2009,06,27,03,44,7.90
2009,06,27,03,45,7.90
2009,06,27,03,46,7.80
2009,06,27,03,47,7.80
2009,06,27,03,48,7.80
2009,06,27,03,49,7.80
2009,06,27,03,50,7.80
2009,06,27,03,51,7.80
2009,06,27,03,52,7.80
2009,06,27,03,53,7.80
2009,06,27,03,54,7.70
2009,06,27,03,55,7.70
2009,06,27,03,56,7.70
2009,06,27,03,57,7.70
2009,06,27,03,58,7.70
2009,06,27,03,59,7.70
2009,06,27,04,00,7.70
2009,06,27,04,01,7.60
2009,06,27,04,02,7.60
2009,06,27,04,03,7.60
2009,06,27,04,04,7.60
2009,06,27,04,05,7.60
2009,06,27,04,06,7.60
2009,06,27,04,07,7.60
2009,06,27,04,08,7.60
2009,06,27,04,09,7.60
2009,06,27,04,10,7.60
2009,06,27,04,11,7.60
2009,06,27,04,12,7.60
2009,06,27,04,13,7.60
2009,06,27,04,14,7.60
2009,06,27,04,15,7.60
2009,06,27,04,16,7.60
2009,06,27,04,17,7.60
2009,06,27,04,18,7.70
2009,06,27,04,19,7.70
2009,06,27,04,20,7.70
2009,06,27,04,21,7.70
2009,06,27,04,22,7.70
2009,06,27,04,23,7.60
2009,06,27,04,24,7.60
2009,06,27,04,25,7.60
2009,06,27,04,26,7.60
2009,06,27,04,27,7.60
2009,06,27,04,28,7.60
2009,06,27,04,29,7.60
2009,06,27,04,30,7.60
2009,06,27,04,31,7.50
2009,06,27,04,32,7.50
2009,06,27,04,33,7.50
2009,06,27,04,34,7.50
2009,06,27,04,35,7.50
2009,06,27,04,36,7.50
2009,06,27,04,37,7.50
2009,06,27,04,38,7.40
2009,06,27,04,39,7.40
2009,06,27,04,40,7.40
2009,06,27,04,41,7.40
2009,06,27,04,42,7.40
2009,06,27,04,43,7.40
2009,06,27,04,44,7.40
2009,06,27,04,45,7.30
2009,06,27,04,46,7.30
2009,06,27,04,47,7.30
2009,06,27,04,48,7.30
2009,06,27,04,49,7.30
2009,06,27,04,50,7.30
2009,06,27,04,51,7.30
2009,06,27,04,52,7.30
2009,06,27,04,53,7.30
2009,06,27,04,54,7.30
2009,06,27,04,55,7.20
2009,06,27,04,56,7.20
2009,06,27,04,57,7.20
2009,06,27,04,58,7.20
2009,06,27,04,59,7.10
2009,06,27,05,00,7.10
2009,06,27,05,01,7.10
2009,06,27,05,02,7.10
2009,06,27,05,03,7.00
2009,06,27,05,04,7.00
2009,06,27,05,05,7.00
2009,06,27,05,06,7.00
2009,06,27,05,07,7.00
2009,06,27,05,08,7.00
2009,06,27,05,09,6.90
2009,06,27,05,10,6.90
2009,06,27,05,11,6.90
2009,06,27,05,12,6.90
2009,06,27,05,13,6.90
2009,06,27,05,14,6.90
2009,06,27,05,15,6.90
2009,06,27,05,16,6.90
2009,06,27,05,17,6.90
2009,06,27,05,18,6.90
2009,06,27,05,19,6.90
2009,06,27,05,20,6.90
2009,06,27,05,21,6.90
2009,06,27,05,22,6.90
2009,06,27,05,23,6.90
2009,06,27,05,24,6.90
2009,06,27,05,25,6.90
2009,06,27,05,26,6.90
2009,06,27,05,27,6.90
2009,06,27,05,28,6.90
2009,06,27,05,29,6.90
2009,06,27,05,30,6.90
2009,06,27,05,31,6.90
2009,06,27,05,32,6.90
2009,06,27,05,33,6.90
2009,06,27,05,34,6.90
2009,06,27,05,35,6.90
2009,06,27,05,36,6.90
2009,06,27,05,37,6.90
2009,06,27,05,38,6.90
2009,06,27,05,39,6.90
2009,06,27,05,40,6.90
2009,06,27,05,41,7.00
2009,06,27,05,42,7.00
2009,06,27,05,43,7.00
2009,06,27,05,44,7.00
2009,06,27,05,45,7.00
2009,06,27,05,46,7.00
2009,06,27,05,47,7.00
2009,06,27,05,48,7.00
2009,06,27,05,49,7.00
2009,06,27,05,50,7.00
2009,06,27,05,51,7.00
2009,06,27,05,52,7.00
2009,06,27,05,53,7.00
2009,06,27,05,54,7.00
2009,06,27,05,55,7.00
2009,06,27,05,56,7.00
2009,06,27,05,57,7.00
2009,06,27,05,58,7.00
2009,06,27,05,59,7.00
2009,06,27,06,00,7.00
2009,06,27,06,01,7.00
2009,06,27,06,02,7.00
2009,06,27,06,03,7.00
2009,06,27,06,04,7.00
2009,06,27,06,05,7.00
2009,06,27,06,06,7.00
2009,06,27,06,07,7.00
2009,06,27,06,08,7.10
2009,06,27,06,09,7.10
2009,06,27,06,10,7.10
2009,06,27,06,11,7.10
2009,06,27,06,12,7.10
2009,06,27,06,13,7.20
2009,06,27,06,14,7.20
2009,06,27,06,15,7.20
2009,06,27,06,16,7.20
2009,06,27,06,17,7.20
2009,06,27,06,18,7.20
2009,06,27,06,19,7.30
2009,06,27,06,20,7.30
2009,06,27,06,21,7.30
2009,06,27,06,22,7.30
2009,06,27,06,23,7.30
2009,06,27,06,24,7.30
2009,06,27,06,25,7.30
2009,06,27,06,26,7.30
2009,06,27,06,27,7.40
2009,06,27,06,28,7.40
2009,06,27,06,29,7.40
2009,06,27,06,30,7.40
2009,06,27,06,31,7.40
2009,06,27,06,32,7.50
2009,06,27,06,33,7.50
2009,06,27,06,34,7.50
2009,06,27,06,35,7.50
2009,06,27,06,36,7.50
2009,06,27,06,37,7.50
2009,06,27,06,38,7.60
2009,06,27,06,39,7.60
2009,06,27,06,40,7.60
2009,06,27,06,41,7.60
2009,06,27,06,42,7.60
2009,06,27,06,43,7.60
2009,06,27,06,44,7.60
2009,06,27,06,45,7.60
2009,06,27,06,46,7.70
2009,06,27,06,47,7.70
2009,06,27,06,48,7.80
2009,06,27,06,49,7.80
2009,06,27,06,50,7.80
2009,06,27,06,51,7.80
2009,06,27,06,52,7.80
2009,06,27,06,53,7.80
2009,06,27,06,54,7.90
2009,06,27,06,55,7.90
2009,06,27,06,56,8.00
2009,06,27,06,57,8.00
2009,06,27,06,58,8.00
2009,06,27,06,59,8.10
2009,06,27,07,00,8.10
2009,06,27,07,01,8.20
2009,06,27,07,02,8.20
2009,06,27,07,03,8.20
2009,06,27,07,04,8.30
2009,06,27,07,05,8.40
2009,06,27,07,06,8.50
2009,06,27,07,07,8.50
2009,06,27,07,08,8.60
2009,06,27,07,09,8.70
2009,06,27,07,10,8.70
2009,06,27,07,11,8.70
2009,06,27,07,12,8.80
2009,06,27,07,13,8.90
2009,06,27,07,14,8.90
2009,06,27,07,15,9.00
2009,06,27,07,16,9.10
2009,06,27,07,17,9.20
2009,06,27,07,18,9.20
2009,06,27,07,19,9.30
2009,06,27,07,20,9.40
2009,06,27,07,21,9.50
2009,06,27,07,22,9.60
2009,06,27,07,23,9.70
2009,06,27,07,24,9.70
2009,06,27,07,25,9.80
2009,06,27,07,26,9.90
2009,06,27,07,27,10.00
2009,06,27,07,28,10.10
2009,06,27,07,29,10.10
2009,06,27,07,30,10.20
2009,06,27,07,31,10.30
2009,06,27,07,32,10.30
2009,06,27,07,33,10.40
2009,06,27,07,34,10.40
2009,06,27,07,35,10.50
2009,06,27,07,36,10.60
2009,06,27,07,37,10.60
2009,06,27,07,38,10.60
2009,06,27,07,39,10.70
2009,06,27,07,40,10.70
2009,06,27,07,41,10.80
2009,06,27,07,42,10.90
2009,06,27,07,43,11.10
2009,06,27,07,44,11.20
2009,06,27,07,45,11.40
2009,06,27,07,46,11.60
2009,06,27,07,47,11.80
2009,06,27,07,48,11.90
2009,06,27,07,49,12.10
2009,06,27,07,50,12.30
2009,06,27,07,51,12.50
2009,06,27,07,52,12.60
2009,06,27,07,53,12.80
2009,06,27,07,54,13.00
2009,06,27,07,55,13.10
2009,06,27,07,56,13.20
2009,06,27,07,57,13.30
2009,06,27,07,58,13.40
2009,06,27,07,59,13.50
2009,06,27,08,00,13.70
2009,06,27,08,01,13.70
2009,06,27,08,02,13.80
2009,06,27,08,03,13.90
2009,06,27,08,04,14.00
2009,06,27,08,05,14.10
2009,06,27,08,06,14.20
2009,06,27,08,07,14.30
2009,06,27,08,08,14.30
2009,06,27,08,09,14.40
2009,06,27,08,10,14.40
2009,06,27,08,11,14.50
2009,06,27,08,12,14.50
2009,06,27,08,13,14.50
2009,06,27,08,14,14.50
2009,06,27,08,15,14.60
2009,06,27,08,16,14.60
2009,06,27,08,17,14.60
2009,06,27,08,18,14.60
2009,06,27,08,19,14.70
2009,06,27,08,20,14.70
2009,06,27,08,21,14.70
2009,06,27,08,22,14.70
2009,06,27,08,23,14.70
2009,06,27,08,24,14.70
2009,06,27,08,25,14.70
2009,06,27,08,26,14.70
2009,06,27,08,27,14.80
2009,06,27,08,28,14.80
2009,06,27,08,29,14.80
2009,06,27,08,30,14.80
2009,06,27,08,31,14.80
2009,06,27,08,32,14.90
2009,06,27,08,33,14.90
2009,06,27,08,34,15.00
2009,06,27,08,35,15.10
2009,06,27,08,36,15.10
2009,06,27,08,37,15.10
2009,06,27,08,38,15.10
2009,06,27,08,39,15.20
2009,06,27,08,40,15.20
2009,06,27,08,41,15.30
2009,06,27,08,42,15.30
2009,06,27,08,43,15.30
2009,06,27,08,44,15.40
2009,06,27,08,45,15.50
2009,06,27,08,46,15.50
2009,06,27,08,47,15.60
2009,06,27,08,48,15.60
2009,06,27,08,49,15.70
2009,06,27,08,50,15.80
2009,06,27,08,51,15.80
2009,06,27,08,52,15.80
2009,06,27,08,53,15.80
2009,06,27,08,54,15.90
2009,06,27,08,55,15.90
2009,06,27,08,56,15.90
2009,06,27,08,57,16.00
2009,06,27,08,58,16.10
2009,06,27,08,59,16.10
2009,06,27,09,00,16.10
2009,06,27,09,01,16.10
2009,06,27,09,02,16.20
2009,06,27,09,03,16.20
2009,06,27,09,04,16.30
2009,06,27,09,05,16.30
2009,06,27,09,06,16.30
2009,06,27,09,07,16.30
2009,06,27,09,08,16.30
2009,06,27,09,09,16.40
2009,06,27,09,10,16.40
2009,06,27,09,11,16.40
2009,06,27,09,12,16.40
2009,06,27,09,13,16.40
2009,06,27,09,14,16.30
2009,06,27,09,15,16.30
2009,06,27,09,16,16.40
2009,06,27,09,17,16.40
2009,06,27,09,18,16.50
2009,06,27,09,19,16.60
2009,06,27,09,20,16.70
2009,06,27,09,21,16.70
2009,06,27,09,22,16.70
2009,06,27,09,23,16.70
2009,06,27,09,24,16.80
2009,06,27,09,25,16.90
2009,06,27,09,26,16.90
2009,06,27,09,27,17.00
2009,06,27,09,28,17.10
2009,06,27,09,29,17.20
2009,06,27,09,30,17.30
2009,06,27,09,31,17.30
2009,06,27,09,32,17.30
2009,06,27,09,33,17.40
2009,06,27,09,34,17.50
2009,06,27,09,35,17.50
2009,06,27,09,36,17.50
2009,06,27,09,37,17.50
2009,06,27,09,38,17.50
2009,06,27,09,39,17.50
2009,06,27,09,40,17.60
2009,06,27,09,41,17.60
2009,06,27,09,42,17.60
2009,06,27,09,43,17.60
2009,06,27,09,44,17.60
2009,06,27,09,45,17.60
2009,06,27,09,46,17.60
2009,06,27,09,47,17.70
2009,06,27,09,48,17.70
2009,06,27,09,49,17.70
2009,06,27,09,50,17.70
2009,06,27,09,51,17.70
2009,06,27,09,52,17.70
2009,06,27,09,53,17.70
2009,06,27,09,54,17.70
2009,06,27,09,55,17.80
2009,06,27,09,56,17.90
2009,06,27,09,57,17.90
2009,06,27,09,58,17.90
2009,06,27,09,59,17.90
2009,06,27,10,00,17.90
2009,06,27,10,01,17.80
2009,06,27,10,02,17.70
2009,06,27,10,03,17.70
2009,06,27,10,04,17.70
2009,06,27,10,05,17.70
2009,06,27,10,06,17.80
2009,06,27,10,07,17.90
2009,06,27,10,08,17.90
2009,06,27,10,09,18.00
2009,06,27,10,10,18.10
2009,06,27,10,11,18.10
2009,06,27,10,12,18.10
2009,06,27,10,13,18.20
2009,06,27,10,14,18.20
2009,06,27,10,15,18.20
2009,06,27,10,16,18.20
2009,06,27,10,17,18.20
2009,06,27,10,18,18.20
2009,06,27,10,19,18.20
2009,06,27,10,20,18.20
2009,06,27,10,21,18.30
2009,06,27,10,22,18.40
2009,06,27,10,23,18.40
2009,06,27,10,24,18.40
2009,06,27,10,25,18.40
2009,06,27,10,26,18.40
2009,06,27,10,27,18.40
2009,06,27,10,28,18.50
2009,06,27,10,29,18.60
2009,06,27,10,30,18.60
2009,06,27,10,31,18.70
2009,06,27,10,32,18.80
2009,06,27,10,33,18.90
2009,06,27,10,34,19.00
2009,06,27,10,35,19.10
2009,06,27,10,36,19.20
2009,06,27,10,37,19.30
2009,06,27,10,38,19.30
2009,06,27,10,39,19.30
2009,06,27,10,40,19.40
2009,06,27,10,41,19.50
2009,06,27,10,42,19.50
2009,06,27,10,43,19.50
2009,06,27,10,44,19.40
2009,06,27,10,45,19.30
2009,06,27,10,46,19.20
2009,06,27,10,47,19.20
2009,06,27,10,48,19.00
2009,06,27,10,49,18.90
2009,06,27,10,50,18.80
2009,06,27,10,51,18.70
2009,06,27,10,52,18.70
2009,06,27,10,53,18.80
2009,06,27,10,54,18.80
2009,06,27,10,55,18.70
2009,06,27,10,56,18.80
2009,06,27,10,57,18.80
2009,06,27,10,58,18.80
2009,06,27,10,59,18.80
2009,06,27,11,00,18.90
2009,06,27,11,01,18.90
2009,06,27,11,02,18.90
2009,06,27,11,03,18.90
2009,06,27,11,04,18.90
2009,06,27,11,05,18.90
2009,06,27,11,06,19.00
2009,06,27,11,07,19.10
2009,06,27,11,08,19.10
2009,06,27,11,09,19.10
2009,06,27,11,10,19.10
2009,06,27,11,11,19.10
2009,06,27,11,12,19.10
2009,06,27,11,13,19.10
2009,06,27,11,14,19.10
2009,06,27,11,15,19.10
2009,06,27,11,16,19.20
2009,06,27,11,17,19.20
2009,06,27,11,18,19.20
2009,06,27,11,19,19.30
2009,06,27,11,20,19.30
2009,06,27,11,21,19.40
2009,06,27,11,22,19.40
2009,06,27,11,23,19.50
2009,06,27,11,24,19.50
2009,06,27,11,25,19.50
2009,06,27,11,26,19.50
2009,06,27,11,27,19.60
2009,06,27,11,28,19.60
2009,06,27,11,29,19.60
2009,06,27,11,30,19.60
2009,06,27,11,31,19.50
2009,06,27,11,32,19.40
2009,06,27,11,33,19.40
2009,06,27,11,34,19.40
2009,06,27,11,35,19.50
2009,06,27,11,36,19.60
2009,06,27,11,37,19.60
2009,06,27,11,38,19.60
2009,06,27,11,39,19.60
2009,06,27,11,40,19.50
2009,06,27,11,41,19.50
2009,06,27,11,42,19.50
2009,06,27,11,43,19.50
2009,06,27,11,44,19.50
2009,06,27,11,45,19.50
2009,06,27,11,46,19.50
2009,06,27,11,47,19.40
2009,06,27,11,48,19.50
2009,06,27,11,49,19.50
2009,06,27,11,50,19.50
2009,06,27,11,51,19.60
2009,06,27,11,52,19.70
2009,06,27,11,53,19.90
2009,06,27,11,54,20.10
2009,06,27,11,55,20.20
2009,06,27,11,56,20.40
2009,06,27,11,57,20.50
2009,06,27,11,58,20.50
2009,06,27,11,59,20.50
2009,06,27,12,00,20.50
2009,06,27,12,01,20.50
2009,06,27,12,02,20.40
2009,06,27,12,03,20.40
2009,06,27,12,04,20.40
2009,06,27,12,05,20.50
2009,06,27,12,06,20.50
2009,06,27,12,07,20.60
2009,06,27,12,08,20.70
2009,06,27,12,09,20.70
2009,06,27,12,10,20.70
2009,06,27,12,11,20.50
2009,06,27,12,12,20.40
2009,06,27,12,13,20.30
2009,06,27,12,14,20.30
2009,06,27,12,15,20.20
2009,06,27,12,16,20.20
2009,06,27,12,17,20.30
2009,06,27,12,18,20.40
2009,06,27,12,19,20.50
2009,06,27,12,20,20.60
2009,06,27,12,21,20.70
2009,06,27,12,22,20.90
2009,06,27,12,23,21.00
2009,06,27,12,24,21.00
2009,06,27,12,25,21.00
2009,06,27,12,26,21.00
2009,06,27,12,27,21.00
2009,06,27,12,28,21.00
2009,06,27,12,29,20.80
2009,06,27,12,30,20.70
2009,06,27,12,31,20.60
2009,06,27,12,32,20.60
2009,06,27,12,33,20.60
2009,06,27,12,34,20.60
2009,06,27,12,35,20.70
2009,06,27,12,36,20.80
2009,06,27,12,37,20.80
2009,06,27,12,38,20.80
2009,06,27,12,39,20.90
2009,06,27,12,40,21.00
2009,06,27,12,41,21.00
2009,06,27,12,42,21.10
2009,06,27,12,43,21.10
2009,06,27,12,44,21.00
2009,06,27,12,45,21.00
2009,06,27,12,46,21.00
2009,06,27,12,47,21.00
2009,06,27,12,48,21.00
2009,06,27,12,49,20.90
2009,06,27,12,50,20.90
2009,06,27,12,51,21.00
2009,06,27,12,52,21.10
2009,06,27,12,53,21.20
2009,06,27,12,54,21.30
2009,06,27,12,55,21.30
2009,06,27,12,56,21.30
2009,06,27,12,57,21.40
2009,06,27,12,58,21.40
2009,06,27,12,59,21.40
2009,06,27,13,00,21.30
2009,06,27,13,01,21.30
2009,06,27,13,02,21.40
2009,06,27,13,03,21.60
2009,06,27,13,04,21.60
2009,06,27,13,05,21.70
2009,06,27,13,06,21.80
2009,06,27,13,07,21.80
2009,06,27,13,08,21.80
2009,06,27,13,09,21.90
2009,06,27,13,10,21.90
2009,06,27,13,11,21.90
2009,06,27,13,12,22.00
2009,06,27,13,13,22.00
2009,06,27,13,14,22.10
2009,06,27,13,15,22.20
2009,06,27,13,16,22.30
2009,06,27,13,17,22.30
2009,06,27,13,18,22.40
2009,06,27,13,19,22.50
2009,06,27,13,20,22.40
2009,06,27,13,21,22.40
2009,06,27,13,22,22.50
2009,06,27,13,23,22.50
2009,06,27,13,24,22.50
2009,06,27,13,25,22.40
2009,06,27,13,26,22.40
2009,06,27,13,27,22.40
2009,06,27,13,28,22.30
2009,06,27,13,29,22.20
2009,06,27,13,30,22.10
2009,06,27,13,31,22.20
2009,06,27,13,32,22.20
2009,06,27,13,33,22.30
2009,06,27,13,34,22.40
2009,06,27,13,35,22.50
2009,06,27,13,36,22.50
2009,06,27,13,37,22.60
2009,06,27,13,38,22.60
2009,06,27,13,39,22.70
2009,06,27,13,40,22.80
2009,06,27,13,41,22.80
2009,06,27,13,42,22.90
2009,06,27,13,43,22.90
2009,06,27,13,44,22.90
2009,06,27,13,45,22.90
2009,06,27,13,46,22.80
2009,06,27,13,47,22.80
2009,06,27,13,48,22.80
2009,06,27,13,49,22.90
2009,06,27,13,50,22.90
2009,06,27,13,51,22.90
2009,06,27,13,52,22.90
2009,06,27,13,53,22.90
2009,06,27,13,54,22.90
2009,06,27,13,55,22.90
2009,06,27,13,56,22.80
2009,06,27,13,57,22.70
2009,06,27,13,58,22.80
2009,06,27,13,59,22.80
2009,06,27,14,00,22.80
2009,06,27,14,01,22.80
2009,06,27,14,02,22.80
2009,06,27,14,03,22.90
2009,06,27,14,04,22.90
2009,06,27,14,05,22.90
2009,06,27,14,06,22.90
2009,06,27,14,07,22.70
2009,06,27,14,08,22.70
2009,06,27,14,09,22.70
2009,06,27,14,10,22.70
2009,06,27,14,11,22.70
2009,06,27,14,12,22.60
2009,06,27,14,13,22.60
2009,06,27,14,14,22.70
2009,06,27,14,15,22.70
2009,06,27,14,16,22.70
2009,06,27,14,17,22.80
2009,06,27,14,18,22.90
2009,06,27,14,19,23.00
2009,06,27,14,20,23.20
2009,06,27,14,21,23.30
2009,06,27,14,22,23.30
2009,06,27,14,23,23.40
2009,06,27,14,24,23.40
2009,06,27,14,25,23.40
2009,06,27,14,26,23.30
2009,06,27,14,27,23.20
2009,06,27,14,28,23.00
2009,06,27,14,29,22.90
2009,06,27,14,30,22.90
2009,06,27,14,31,23.10
2009,06,27,14,32,23.10
2009,06,27,14,33,23.20
2009,06,27,14,34,23.30
2009,06,27,14,35,23.30
2009,06,27,14,36,23.30
2009,06,27,14,37,23.40
2009,06,27,14,38,23.40
2009,06,27,14,39,23.30
2009,06,27,14,40,23.30
2009,06,27,14,41,23.20
2009,06,27,14,42,23.10
2009,06,27,14,43,22.90
2009,06,27,14,44,22.90
2009,06,27,14,45,22.80
2009,06,27,14,46,22.70
2009,06,27,14,47,22.70
2009,06,27,14,48,22.60
2009,06,27,14,49,22.60
2009,06,27,14,50,22.50
2009,06,27,14,51,22.50
2009,06,27,14,52,22.40
2009,06,27,14,53,22.40
2009,06,27,14,54,22.30
2009,06,27,14,55,22.30
2009,06,27,14,56,22.20
2009,06,27,14,57,22.20
2009,06,27,14,58,22.30
2009,06,27,14,59,22.30
2009,06,27,15,00,22.30
2009,06,27,15,01,22.30
2009,06,27,15,02,22.30
2009,06,27,15,03,22.20
2009,06,27,15,04,22.20
2009,06,27,15,05,22.10
2009,06,27,15,06,22.00
2009,06,27,15,07,22.00
2009,06,27,15,08,22.00
2009,06,27,15,09,22.00
2009,06,27,15,10,22.00
2009,06,27,15,11,22.00
2009,06,27,15,12,22.00
2009,06,27,15,13,21.90
2009,06,27,15,14,21.90
2009,06,27,15,15,21.80
2009,06,27,15,16,21.80
2009,06,27,15,17,21.80
2009,06,27,15,18,21.80
2009,06,27,15,19,21.80
2009,06,27,15,20,21.70
2009,06,27,15,21,21.70
2009,06,27,15,22,21.70
2009,06,27,15,23,21.70
2009,06,27,15,24,21.70
2009,06,27,15,25,21.80
2009,06,27,15,26,21.80
2009,06,27,15,27,21.80
2009,06,27,15,28,21.80
2009,06,27,15,29,21.70
2009,06,27,15,30,21.70
2009,06,27,15,31,21.70
2009,06,27,15,32,21.80
2009,06,27,15,33,21.90
2009,06,27,15,34,22.00
2009,06,27,15,35,22.00
2009,06,27,15,36,22.00
2009,06,27,15,37,22.10
2009,06,27,15,38,22.10
2009,06,27,15,39,22.10
2009,06,27,15,40,22.00
2009,06,27,15,41,22.00
2009,06,27,15,42,22.00
2009,06,27,15,43,21.90
2009,06,27,15,44,21.90
2009,06,27,15,45,21.90
2009,06,27,15,46,21.90
2009,06,27,15,47,22.00
2009,06,27,15,48,22.00
2009,06,27,15,49,22.00
2009,06,27,15,50,22.00
2009,06,27,15,51,22.10
2009,06,27,15,52,22.10
2009,06,27,15,53,22.10
2009,06,27,15,54,22.10
2009,06,27,15,55,22.10
2009,06,27,15,56,22.20
2009,06,27,15,57,22.20
2009,06,27,15,58,22.10
2009,06,27,15,59,22.20
2009,06,27,16,00,22.10
2009,06,27,16,01,22.10
2009,06,27,16,02,22.10
2009,06,27,16,03,22.10
2009,06,27,16,04,22.10
2009,06,27,16,05,22.10
2009,06,27,16,06,22.10
2009,06,27,16,07,22.10
2009,06,27,16,08,22.10
2009,06,27,16,09,22.10
2009,06,27,16,10,22.10
2009,06,27,16,11,22.00
2009,06,27,16,12,21.90
2009,06,27,16,13,21.80
2009,06,27,16,14,21.80
2009,06,27,16,15,21.70
2009,06,27,16,16,21.70
2009,06,27,16,17,21.70
2009,06,27,16,18,21.70
2009,06,27,16,19,21.70
2009,06,27,16,20,21.70
2009,06,27,16,21,21.70
2009,06,27,16,22,21.70
2009,06,27,16,23,21.60
2009,06,27,16,24,21.60
2009,06,27,16,25,21.60
2009,06,27,16,26,21.60
2009,06,27,16,27,21.60
2009,06,27,16,28,21.60
2009,06,27,16,29,21.60
2009,06,27,16,30,21.60
2009,06,27,16,31,21.60
2009,06,27,16,32,21.60
2009,06,27,16,33,21.60
2009,06,27,16,34,21.60
2009,06,27,16,35,21.50
2009,06,27,16,36,21.40
2009,06,27,16,37,21.30
2009,06,27,16,38,21.10
2009,06,27,16,39,20.90
2009,06,27,16,40,20.60
2009,06,27,16,41,20.40
2009,06,27,16,42,20.20
2009,06,27,16,43,20.10
2009,06,27,16,44,19.90
2009,06,27,16,45,19.80
2009,06,27,16,46,19.60
2009,06,27,16,47,19.50
2009,06,27,16,48,19.40
2009,06,27,16,49,19.20
2009,06,27,16,50,19.10
2009,06,27,16,51,19.00
2009,06,27,16,52,18.90
2009,06,27,16,53,18.70
2009,06,27,16,54,18.60
2009,06,27,16,55,18.60
2009,06,27,16,56,18.50
2009,06,27,16,57,18.40
2009,06,27,16,58,18.30
2009,06,27,16,59,18.30
2009,06,27,17,00,18.20
2009,06,27,17,01,18.20
2009,06,27,17,02,18.10
2009,06,27,17,03,18.10
2009,06,27,17,04,18.10
2009,06,27,17,05,18.00
2009,06,27,17,06,17.90
2009,06,27,17,07,17.90
2009,06,27,17,08,17.90
2009,06,27,17,09,17.90
2009,06,27,17,10,17.90
2009,06,27,17,11,17.90
2009,06,27,17,12,17.90
2009,06,27,17,13,17.90
2009,06,27,17,14,17.90
2009,06,27,17,15,17.90
2009,06,27,17,16,18.00
2009,06,27,17,17,18.00
2009,06,27,17,18,17.90
2009,06,27,17,19,17.90
2009,06,27,17,20,17.90
2009,06,27,17,21,17.90
2009,06,27,17,22,17.90
2009,06,27,17,23,17.90
2009,06,27,17,24,17.90
2009,06,27,17,25,17.90
2009,06,27,17,26,17.90
2009,06,27,17,27,17.90
2009,06,27,17,28,17.90
2009,06,27,17,29,17.90
2009,06,27,17,30,17.90
2009,06,27,17,31,17.90
2009,06,27,17,32,17.90
2009,06,27,17,33,17.80
2009,06,27,17,34,17.80
2009,06,27,17,35,17.70
2009,06,27,17,36,17.70
2009,06,27,17,37,17.70
2009,06,27,17,38,17.70